EW3360 Weather Reports


time (UTC)temp
C
wind
direction
speed
KPH
gust
KPH
rain 1hr
cm
rain 24hr
cm
rain mn
cm
humidity
%
barometer
mb
20260906071600 18 231 0.0 0.0 0.00 0.00 0.00 100 1011.6
20260906070059 18 231 0.0 0.0 0.00 0.00 0.00 100 1011.8
20260906064555 18 231 0.0 1.6 0.00 0.00 0.00 100 1011.7
20260906063054 18 231 0.0 0.0 0.00 0.00 0.00 100 1011.9
20260906061554 18 231 0.0 1.6 0.00 0.00 0.00 99 1012.0
20260906060050 18 231 0.0 3.2 0.00 0.00 0.00 99 1012.1
20260906054559 19 231 0.0 0.0 0.00 0.00 0.00 99 1012.5
20260906053054 19 231 0.0 4.8 0.00 0.00 0.00 98 1012.5
20260906051604 19 231 3.2 4.8 0.00 0.00 0.00 99 1012.6
20260906050046 19 67 1.6 3.2 0.00 0.00 0.00 100 1012.6
20260906044549 19 67 0.0 0.0 0.00 0.00 0.00 100 1012.8
20260906043043 19 67 0.0 1.6 0.00 0.00 0.00 99 1012.9
20260906041536 19 67 0.0 0.0 0.00 0.00 0.00 100 1012.9
20260906040057 19 67 0.0 1.6 0.00 0.00 0.00 100 1012.9
20260906034531 19 67 0.0 0.0 0.00 0.00 0.00 100 1013.0
20260906033044 19 67 0.0 0.0 0.00 0.00 0.00 99 1013.1
20260906031530 20 67 1.6 3.2 0.00 0.00 0.00 100 1013.3
20260906030030 20 67 0.0 3.2 0.00 0.00 0.00 99 1013.5
20260906024529 20 67 0.0 0.0 0.00 0.00 0.00 99 1013.1
20260906023028 20 67 0.0 1.6 0.00 0.00 0.00 99 1013.0
20260906021528 20 67 0.0 1.6 0.00 0.00 0.00 99 1012.8
20260906020028 20 67 0.0 1.6 0.00 0.00 0.00 99 1012.5
20260906014529 20 67 0.0 0.0 0.00 0.00 0.00 99 1012.5
20260906013030 20 67 0.0 0.0 0.00 0.00 0.00 99 1012.6
20260906011527 21 67 0.0 1.6 0.00 0.00 0.00 99 1012.5
20260906010026 21 67 0.0 1.6 0.00 0.00 0.00 99 1012.2
20260906004526 21 67 0.0 0.0 0.00 0.00 0.00 99 1012.2
20260906003025 21 67 0.0 1.6 0.00 0.00 0.00 99 1011.9
20260906001525 21 67 0.0 3.2 0.00 0.00 0.00 99 1011.9
20260906000024 22 67 0.0 3.2 0.00 0.00 0.00 98 1011.7
20260905234524 22 68 0.0 3.2 0.00 0.00 0.00 98 1011.7
20260905233023 22 68 0.0 1.6 0.00 0.00 0.00 98 1011.5
20260905231523 22 68 0.0 0.0 0.00 0.00 0.00 97 1011.5
20260905230022 23 68 0.0 0.0 0.00 0.00 0.00 96 1011.3
20260905224551 23 68 0.0 0.0 0.00 0.00 0.00 96 1011.4
20260905223022 23 68 0.0 0.0 0.00 0.00 0.00 95 1011.4
20260905221520 23 68 0.0 1.6 0.00 0.00 0.00 95 1011.3
20260905220019 23 68 0.0 0.0 0.00 0.00 0.00 94 1011.3
20260905214517 24 68 0.0 0.0 0.00 0.00 0.00 93 1011.5
20260905213016 24 68 0.0 1.6 0.00 0.00 0.00 93 1011.6
20260905211534 23 68 0.0 3.2 0.00 0.00 0.00 92 1012.0
20260905210020 23 68 0.0 0.0 0.00 0.00 0.00 92 1012.1
20260905204513 23 68 1.6 3.2 0.00 0.00 0.00 92 1012.0
20260905203011 23 68 0.0 0.0 0.00 0.00 0.00 91 1012.1
20260905201509 24 68 0.0 1.6 0.00 0.00 0.00 88 1012.3
20260905200019 25 68 0.0 3.2 0.00 0.00 0.00 85 1012.4
20260905194505 24 56 1.6 3.2 0.00 0.00 0.00 92 1012.5
20260905193005 23 56 1.6 4.8 0.00 0.00 0.00 90 1012.9
20260905191504 25 119 1.6 4.8 0.00 0.00 0.00 87 1012.8
20260905190003 26 160 3.2 8.0 0.00 0.00 0.00 79 1012.9
20260905184504 25 166 3.2 4.8 0.00 0.00 0.00 83 1012.9
20260905183002 25 95 0.0 3.2 0.00 0.00 0.00 83 1013.2
20260905181501 24 95 0.0 4.8 0.00 0.00 0.00 88 1013.3
20260905180106 23 154 1.6 4.8 0.00 0.00 0.00 85 1013.8
20260905174600 24 87 0.0 3.2 0.00 0.00 0.00 90 1013.5
20260905173126 25 86 0.0 3.2 0.00 0.00 0.00 88 1013.2
20260905171558 26 86 0.0 1.6 0.00 0.00 0.00 82 1012.9
20260905170111 27 86 1.6 3.2 0.00 0.00 0.00 87 1012.8
20260905164605 28 86 0.0 1.6 0.00 0.00 0.00 85 1012.7
20260905163055 30 86 0.0 1.6 0.00 0.00 0.00 79 1013.2
20260905161605 31 109 0.0 3.2 0.00 0.00 0.00 71 1013.2
20260905160049 30 107 0.0 3.2 0.00 0.00 0.00 80 1013.4
20260905154546 28 198 0.0 0.0 0.00 0.00 0.00 84 1013.5
20260905153042 28 198 0.0 1.6 0.00 0.00 0.00 85 1013.4
20260905151540 28 198 0.0 1.6 0.00 0.00 0.00 87 1013.7
20260905150038 26 169 0.0 0.0 0.00 0.00 0.00 90 1013.8
20260905144530 25 169 0.0 0.0 0.00 0.00 0.00 96 1013.7
20260905143026 22 169 0.0 0.0 0.00 0.00 0.00 99 1013.9
20260905141522 21 169 0.0 0.0 0.00 0.00 0.00 99 1014.1
20260905140018 21 169 0.0 0.0 0.00 0.00 0.00 99 1014.2
20260905134518 20 169 0.0 0.0 0.00 0.00 0.00 99 1014.3
20260905133024 20 169 0.0 0.0 0.00 0.00 0.00 100 1014.4
20260905131523 19 169 0.0 1.6 0.00 0.00 0.00 100 1014.6
20260905130013 18 169 0.0 0.0 0.00 0.00 0.00 100 1014.5
20260905124614 18 169 0.0 0.0 0.00 0.00 0.00 100 1014.5
20260905123013 18 169 0.0 1.6 0.00 0.00 0.00 100 1014.4
20260905121512 18 169 0.0 0.0 0.00 0.00 0.00 100 1014.4
20260905120011 17 169 0.0 0.0 0.00 0.00 0.00 100 1014.3
20260905114511 17 169 0.0 0.0 0.00 0.00 0.00 100 1014.2
20260905113012 17 169 0.0 0.0 0.00 0.00 0.00 100 1014.0
20260905111510 17 169 0.0 1.6 0.00 0.00 0.00 100 1013.7
20260905110009 17 169 0.0 0.0 0.00 0.00 0.00 100 1013.6
20260905104508 17 169 0.0 3.2 0.00 0.00 0.00 100 1013.3
20260905103008 17 169 0.0 1.6 0.00 0.00 0.00 100 1013.3
20260905101507 17 169 0.0 0.0 0.00 0.00 0.00 100 1013.3
20260905100006 18 169 0.0 0.0 0.00 0.00 0.00 100 1013.3
20260905094505 18 169 0.0 0.0 0.00 0.00 0.00 100 1013.2
20260905093004 18 169 0.0 0.0 0.00 0.00 0.00 100 1013.2
20260905091504 18 169 0.0 0.0 0.00 0.00 0.00 100 1013.1
20260905090002 18 169 0.0 0.0 0.00 0.00 0.00 100 1013.2
20260905084600 18 169 0.0 0.0 0.00 0.00 0.00 100 1013.4
20260905083109 18 169 0.0 0.0 0.00 0.00 0.00 100 1013.7
20260905081554 18 169 0.0 0.0 0.00 0.00 0.00 100 1013.8
20260905080054 18 169 0.0 0.0 0.00 0.00 0.00 100 1013.9
20260905074552 18 169 0.0 0.0 0.00 0.00 0.00 100 1014.1
20260905073053 18 169 0.0 0.0 0.00 0.00 0.00 100 1014.2